Hourly Data Report for October 24, 2014

All times are specified in Local Standard Time (LST). Add 1 hour to adjust for Daylight Saving Time where and when it is observed.

CAPE DORSET A
NUNAVUT

64°13'49.000" N
76°31'30.000" W
48.20 m
2400637
71366
YTE

Download Data

Hourly Data (October 2014)
Hourly Data Report for October 24, 2014
Temp Definition
°C
Dew Point Temp Definition
°C
Rel Hum Definition
%
Wind Dir Definition
10's deg

Wind Spd Definition
km/h
Visibility Definition
km
Stn Press Definition
kPa
Hmdx Definition


Wind Chill Definition


Weather Definition


TIME
00:00 Legend Double Dagger -8.8 -11.1 84 30 28 16.1 101.84   -18 LegendNANA
01:00 Legend Double Dagger -9.0 -11.7 81 33 15 16.1 101.90   -16 LegendNANA
02:00 Legend Double Dagger -9.4 -12.2 80 30 17 16.1 101.94   -16 LegendNANA
03:00 Legend Double Dagger -9.8 -12.5 81 31 15 16.1 101.94   -16 LegendNANA
04:00 Legend Double Dagger -9.0 -12.0 79 30 17 16.1 101.97   -16 Snow
05:00 Legend Double Dagger -8.7 -11.6 80 32 13 16.1 101.97   -15 Snow
06:00 Legend Double Dagger -8.6 -11.9 77 34 15 16.1 101.98   -15 Snow
07:00 Legend Double Dagger -8.5 -12.0 76 35 13 16.1 101.98   -14 LegendNANA
08:00 Legend Double Dagger -8.4 -11.8 77 36 9 16.1 101.98   -13 Snow
09:00 Legend Double Dagger -8.3 -11.9 76 1 15 16.1 101.93   -15 Snow
10:00 Legend Double Dagger -8.3 -12.3 73 4 11 16.1 101.91   -14 LegendNANA
11:00 Legend Double Dagger -7.8 -11.8 73 5 11 16.1 101.90   -13 LegendNANA
12:00 Legend Double Dagger -7.7 -11.7 73 4 11 16.1 101.91   -13 LegendNANA
13:00 Legend Double Dagger -7.4 -11.3 74 4 11 16.1 101.86   -12 LegendNANA
14:00 Legend Double Dagger -7.1 -11.0 74 7 13 16.1 101.81   -13 LegendNANA
15:00 Legend Double Dagger -7.0 -10.6 76 5 11 16.1 101.79   -12 LegendNANA
16:00 Legend Double Dagger -7.0 -10.3 78 7 24 16.1 101.72   -15 LegendNANA
17:00 Legend Double Dagger -6.6 -10.1 76 6 22 16.1 101.71   -14 Snow
18:00 Legend Double Dagger -6.5 -10.4 74 7 26 16.1 101.68   -14 LegendNANA
19:00 Legend Double Dagger -6.3 -10.1 75 9 28 16.1 101.63   -14 LegendNANA
20:00 Legend Double Dagger -6.3 -9.8 76 8 24 16.1 101.61   -14 LegendNANA
21:00 Legend Double Dagger -6.0 -9.4 77 7 30 16.1 101.48   -14 LegendNANA
22:00 Legend Double Dagger -6.2 -9.9 75 7 32 16.1 101.46   -15 LegendNANA
23:00 Legend Double Dagger -6.2 -9.8 76 9 32 16.1 101.41   -15 LegendNANA

Notes on Data Quality.

Legend

  • E = Estimated
  • M = Missing
  • NA = Not Available
  • ‡ = Partner data that is not subject to review by the National Climate Archives
Date modified: